Time,TemperatureF,DewpointF,PressureIn,WindDirection,WindDirectionDegrees,WindSpeedMPH,WindSpeedGustMPH,Humidity,HourlyPrecipIn,Conditions,Clouds,dailyrainin,SoftwareType,DateUTC
2013-06-26 00:12:00,71.0,67.0,30.08,SSE,160,0.0,-999.0,88,-99.99,,,0.00,weatherlink.com 1.10,2013-06-26 04:12:00,
2013-06-26 00:27:00,70.4,67.0,30.08,SW,214,0.0,-999.0,89,-99.99,,,0.00,weatherlink.com 1.10,2013-06-26 04:27:00,
2013-06-26 00:42:00,70.5,68.0,30.07,SSE,165,0.0,-999.0,90,-99.99,,,0.00,weatherlink.com 1.10,2013-06-26 04:42:00,
2013-06-26 00:57:00,70.6,68.0,30.07,South,171,0.0,-999.0,90,-99.99,,,0.00,weatherlink.com 1.10,2013-06-26 04:57:00,
2013-06-26 01:12:00,70.4,68.0,30.06,SSE,164,0.0,-999.0,91,-99.99,,,0.00,weatherlink.com 1.10,2013-06-26 05:12:00,
2013-06-26 01:27:00,69.9,68.0,30.05,SSE,148,2.0,-999.0,92,-99.99,,,0.00,weatherlink.com 1.10,2013-06-26 05:27:00,
2013-06-26 01:42:00,69.4,67.0,30.05,SSE,153,0.0,-999.0,93,-99.99,,,0.00,weatherlink.com 1.10,2013-06-26 05:42:00,
2013-06-26 01:57:00,69.0,67.0,30.05,SSE,165,0.0,-999.0,94,-99.99,,,0.00,weatherlink.com 1.10,2013-06-26 05:57:00,
2013-06-26 02:12:00,68.7,67.0,30.05,SSE,165,0.0,-999.0,95,-99.99,,,0.00,weatherlink.com 1.10,2013-06-26 06:12:00,
2013-06-26 02:27:00,68.7,68.0,30.04,South,172,0.0,-999.0,96,-99.99,,,0.00,weatherlink.com 1.10,2013-06-26 06:27:00,
2013-06-26 02:42:00,68.6,68.0,30.04,WSW,255,0.0,-999.0,97,-99.99,,,0.00,weatherlink.com 1.10,2013-06-26 06:42:00,
2013-06-26 02:57:00,68.3,68.0,30.03,North,4,0.0,-999.0,97,-99.99,,,0.00,weatherlink.com 1.10,2013-06-26 06:57:00,
2013-06-26 03:12:00,68.5,68.0,30.03,NE,43,0.0,-999.0,97,-99.99,,,0.00,weatherlink.com 1.10,2013-06-26 07:12:00,
2013-06-26 03:27:00,68.5,68.0,30.02,NE,43,0.0,-999.0,97,-99.99,,,0.00,weatherlink.com 1.10,2013-06-26 07:27:00,
2013-06-26 03:42:00,68.4,68.0,30.02,NNE,24,0.0,-999.0,97,-99.99,,,0.00,weatherlink.com 1.10,2013-06-26 07:42:00,
2013-06-26 03:57:00,68.6,68.0,30.02,West,262,1.0,-999.0,96,-99.99,,,0.00,weatherlink.com 1.10,2013-06-26 07:57:00,
2013-06-26 04:12:00,68.7,68.0,30.02,WNW,295,1.0,-999.0,96,-99.99,,,0.00,weatherlink.com 1.10,2013-06-26 08:12:00,
2013-06-26 04:27:00,68.6,67.0,30.02,NNE,23,2.0,-999.0,95,-99.99,,,0.00,weatherlink.com 1.10,2013-06-26 08:27:00,
2013-06-26 04:42:00,69.2,67.0,30.02,North,356,0.0,-999.0,91,-99.99,,,0.00,weatherlink.com 1.10,2013-06-26 08:42:00,
2013-06-26 04:57:00,69.8,66.0,30.02,WNW,295,0.0,-999.0,88,-99.99,,,0.00,weatherlink.com 1.10,2013-06-26 08:57:00,
2013-06-26 05:12:00,69.2,66.0,30.03,ENE,62,1.0,-999.0,88,-99.99,,,0.00,weatherlink.com 1.10,2013-06-26 09:12:00,
2013-06-26 05:27:00,69.1,66.0,30.03,SE,142,1.0,-999.0,88,-99.99,,,0.00,weatherlink.com 1.10,2013-06-26 09:27:00,
2013-06-26 05:42:00,69.2,65.0,30.04,SE,144,0.0,-999.0,87,-99.99,,,0.00,weatherlink.com 1.10,2013-06-26 09:42:00,
2013-06-26 05:57:00,68.7,65.0,30.05,NNE,27,2.0,-999.0,87,-99.99,,,0.00,weatherlink.com 1.10,2013-06-26 09:57:00,
2013-06-26 06:12:00,68.7,65.0,30.05,NNE,23,0.0,-999.0,88,-99.99,,,0.00,weatherlink.com 1.10,2013-06-26 10:12:00,
2013-06-26 06:27:00,67.9,66.0,30.06,NNE,23,0.0,-999.0,92,-99.99,,,0.00,weatherlink.com 1.10,2013-06-26 10:27:00,
2013-06-26 06:42:00,66.9,65.0,30.06,NE,39,2.0,-999.0,94,-99.99,,,0.00,weatherlink.com 1.10,2013-06-26 10:42:00,
2013-06-26 06:57:00,68.3,65.0,30.07,NE,44,2.0,-999.0,90,-99.99,,,0.00,weatherlink.com 1.10,2013-06-26 10:57:00,
2013-06-26 07:12:00,68.4,65.0,30.07,NE,44,1.0,-999.0,89,-99.99,,,0.00,weatherlink.com 1.10,2013-06-26 11:12:00,
2013-06-26 07:27:00,68.8,65.0,30.07,NE,44,2.0,-999.0,88,-99.99,,,0.00,weatherlink.com 1.10,2013-06-26 11:27:00,
2013-06-26 07:42:00,68.7,65.0,30.07,NE,44,2.0,-999.0,89,-99.99,,,0.00,weatherlink.com 1.10,2013-06-26 11:42:00,
2013-06-26 07:57:00,69.5,66.0,30.07,SE,144,0.0,-999.0,87,-99.99,,,0.00,weatherlink.com 1.10,2013-06-26 11:57:00,
2013-06-26 08:12:00,69.0,65.0,30.07,NE,53,2.0,-999.0,87,-99.99,,,0.00,weatherlink.com 1.10,2013-06-26 12:12:00,
2013-06-26 08:27:00,70.7,66.0,30.07,NE,53,0.0,-999.0,84,-99.99,,,0.00,weatherlink.com 1.10,2013-06-26 12:27:00,
2013-06-26 08:42:00,72.3,66.0,30.07,North,355,1.0,-999.0,81,-99.99,,,0.00,weatherlink.com 1.10,2013-06-26 12:42:00,
2013-06-26 08:57:00,73.7,66.0,30.07,North,360,0.0,-999.0,78,-99.99,,,0.00,weatherlink.com 1.10,2013-06-26 12:57:00,
2013-06-26 09:12:00,74.0,67.0,30.08,NNE,12,0.0,-999.0,78,-99.99,,,0.00,weatherlink.com 1.10,2013-06-26 13:12:00,
2013-06-26 09:27:00,73.4,69.0,30.08,SE,133,0.0,-999.0,87,-99.99,,,0.00,weatherlink.com 1.10,2013-06-26 13:27:00,
2013-06-26 09:42:00,74.2,70.0,30.07,West,266,0.0,-999.0,85,-99.99,,,0.00,weatherlink.com 1.10,2013-06-26 13:42:00,
2013-06-26 09:57:00,75.3,67.0,30.06,West,267,0.0,-999.0,75,-99.99,,,0.00,weatherlink.com 1.10,2013-06-26 13:57:00,
2013-06-26 10:12:00,76.5,71.0,30.06,SE,134,0.0,-999.0,83,-99.99,,,0.00,weatherlink.com 1.10,2013-06-26 14:12:00,
2013-06-26 10:27:00,77.2,71.0,30.05,SSE,155,0.0,-999.0,81,-99.99,,,0.00,weatherlink.com 1.10,2013-06-26 14:27:00,
2013-06-26 10:42:00,77.3,71.0,30.05,ESE,110,2.0,-999.0,80,-99.99,,,0.00,weatherlink.com 1.10,2013-06-26 14:42:00,
2013-06-26 10:57:00,77.1,70.0,30.05,South,176,0.0,-999.0,78,-99.99,,,0.00,weatherlink.com 1.10,2013-06-26 14:57:00,
2013-06-26 11:12:00,79.2,71.0,30.05,South,190,1.0,-999.0,76,-99.99,,,0.00,weatherlink.com 1.10,2013-06-26 15:12:00,
2013-06-26 11:27:00,79.8,71.0,30.05,SE,135,0.0,-999.0,75,-99.99,,,0.00,weatherlink.com 1.10,2013-06-26 15:27:00,
2013-06-26 11:42:00,80.3,71.0,30.06,South,174,2.0,-999.0,74,-99.99,,,0.00,weatherlink.com 1.10,2013-06-26 15:42:00,
2013-06-26 11:57:00,80.2,72.0,30.05,NNW,346,1.0,-999.0,75,-99.99,,,0.00,weatherlink.com 1.10,2013-06-26 15:57:00,
2013-06-26 12:12:00,80.9,72.0,30.05,WSW,242,1.0,-999.0,74,-99.99,,,0.00,weatherlink.com 1.10,2013-06-26 16:12:00,
2013-06-26 12:27:00,81.9,73.0,30.05,SSE,147,1.0,-999.0,74,-99.99,,,0.00,weatherlink.com 1.10,2013-06-26 16:27:00,
2013-06-26 12:42:00,82.3,73.0,30.04,South,174,2.0,-999.0,73,-99.99,,,0.00,weatherlink.com 1.10,2013-06-26 16:42:00,
2013-06-26 12:57:00,80.9,73.0,30.04,South,174,1.0,-999.0,76,-99.99,,,0.00,weatherlink.com 1.10,2013-06-26 16:57:00,
2013-06-26 13:12:00,82.2,74.0,30.03,SE,131,1.0,-999.0,75,-99.99,,,0.00,weatherlink.com 1.10,2013-06-26 17:12:00,
2013-06-26 13:27:00,81.6,73.0,30.03,SE,145,0.0,-999.0,74,-99.99,,,0.00,weatherlink.com 1.10,2013-06-26 17:27:00,
2013-06-26 13:43:00,78.2,72.0,30.02,SSE,151,0.0,-999.0,80,-99.99,,,0.06,weatherlink.com 1.10,2013-06-26 17:43:00,
2013-06-26 13:57:00,75.8,72.0,30.02,East,91,0.0,-999.0,87,-99.99,,,0.06,weatherlink.com 1.10,2013-06-26 17:57:00,
2013-06-26 14:13:00,73.0,69.0,30.04,NE,51,6.0,-999.0,88,-99.99,,,0.07,weatherlink.com 1.10,2013-06-26 18:13:00,
2013-06-26 14:27:00,71.0,66.0,30.03,NE,49,10.0,-999.0,85,-99.99,,,0.07,weatherlink.com 1.10,2013-06-26 18:27:00,
2013-06-26 14:42:00,69.9,66.0,30.02,ENE,62,3.0,-999.0,88,-99.99,,,0.07,weatherlink.com 1.10,2013-06-26 18:42:00,
2013-06-26 14:57:00,71.4,68.0,30.02,NE,44,3.0,-999.0,88,-99.99,,,0.07,weatherlink.com 1.10,2013-06-26 18:57:00,
2013-06-26 15:13:00,72.6,69.0,30.02,NE,56,0.0,-999.0,87,-99.99,,,0.07,weatherlink.com 1.10,2013-06-26 19:13:00,
2013-06-26 15:28:00,75.4,70.0,30.00,SSE,166,0.0,-999.0,83,-99.99,,,0.07,weatherlink.com 1.10,2013-06-26 19:28:00,
2013-06-26 15:43:00,79.0,72.0,30.00,SSE,149,2.0,-999.0,78,-99.99,,,0.07,weatherlink.com 1.10,2013-06-26 19:43:00,
2013-06-26 16:13:00,80.8,73.0,29.98,SSE,155,0.0,-999.0,76,-99.99,,,0.07,weatherlink.com 1.10,2013-06-26 20:13:00,
2013-06-26 16:28:00,81.0,73.0,29.99,SSW,204,0.0,-999.0,76,-99.99,,,0.07,weatherlink.com 1.10,2013-06-26 20:28:00,
2013-06-26 16:43:00,79.6,73.0,29.99,South,172,0.0,-999.0,79,-99.99,,,0.07,weatherlink.com 1.10,2013-06-26 20:43:00,
2013-06-26 16:58:00,79.3,72.0,29.98,NW,309,1.0,-999.0,79,-99.99,,,0.07,weatherlink.com 1.10,2013-06-26 20:58:00,
2013-06-26 17:13:00,78.3,72.0,29.98,SSE,149,0.0,-999.0,82,-99.99,,,0.07,weatherlink.com 1.10,2013-06-26 21:13:00,
2013-06-26 17:28:00,77.1,72.0,29.99,SSE,148,1.0,-999.0,85,-99.99,,,0.07,weatherlink.com 1.10,2013-06-26 21:28:00,
2013-06-26 17:43:00,74.4,69.0,29.96,WNW,284,0.0,-999.0,82,-99.99,,,0.09,weatherlink.com 1.10,2013-06-26 21:43:00,
2013-06-26 17:58:00,71.7,68.0,29.95,SE,138,3.0,-999.0,88,-99.99,,,0.09,weatherlink.com 1.10,2013-06-26 21:58:00,
2013-06-26 18:13:00,70.8,67.0,29.95,SE,134,2.0,-999.0,86,-99.99,,,0.09,weatherlink.com 1.10,2013-06-26 22:13:00,
2013-06-26 18:28:00,72.6,66.0,29.97,WNW,283,4.0,-999.0,80,-99.99,,,0.09,weatherlink.com 1.10,2013-06-26 22:28:00,
2013-06-26 18:43:00,74.4,67.0,29.97,NW,326,1.0,-999.0,78,-99.99,,,0.09,weatherlink.com 1.10,2013-06-26 22:43:00,
2013-06-26 18:58:00,75.2,66.0,29.97,WNW,287,2.0,-999.0,73,-99.99,,,0.09,weatherlink.com 1.10,2013-06-26 22:58:00,
2013-06-26 19:13:00,74.5,66.0,29.98,ENE,65,2.0,-999.0,75,-99.99,,,0.09,weatherlink.com 1.10,2013-06-26 23:13:00,
2013-06-26 19:28:00,74.9,67.0,29.97,NE,53,0.0,-999.0,77,-99.99,,,0.09,weatherlink.com 1.10,2013-06-26 23:28:00,
2013-06-26 19:43:00,75.5,67.0,29.97,West,259,1.0,-999.0,75,-99.99,,,0.09,weatherlink.com 1.10,2013-06-26 23:43:00,
2013-06-26 19:58:00,74.6,67.0,29.98,South,191,0.0,-999.0,78,-99.99,,,0.09,weatherlink.com 1.10,2013-06-26 23:58:00,
2013-06-26 20:13:00,73.9,67.0,29.98,WSW,248,0.0,-999.0,78,-99.99,,,0.09,weatherlink.com 1.10,2013-06-27 00:13:00,
2013-06-26 20:28:00,74.0,66.0,29.97,SE,129,1.0,-999.0,77,-99.99,,,0.09,weatherlink.com 1.10,2013-06-27 00:28:00,
2013-06-26 20:44:00,73.5,66.0,29.97,SSE,158,0.0,-999.0,78,-99.99,,,0.09,weatherlink.com 1.10,2013-06-27 00:44:00,
2013-06-26 20:58:00,73.0,66.0,29.98,West,264,0.0,-999.0,79,-99.99,,,0.09,weatherlink.com 1.10,2013-06-27 00:58:00,
2013-06-26 21:13:00,72.6,66.0,29.97,West,270,0.0,-999.0,79,-99.99,,,0.09,weatherlink.com 1.10,2013-06-27 01:13:00,
2013-06-26 21:28:00,72.6,65.0,29.97,NW,315,0.0,-999.0,78,-99.99,,,0.09,weatherlink.com 1.10,2013-06-27 01:28:00,
2013-06-26 21:43:00,72.7,66.0,29.97,SSE,168,0.0,-999.0,78,-99.99,,,0.09,weatherlink.com 1.10,2013-06-27 01:43:00,
2013-06-26 21:58:00,72.3,66.0,29.97,East,96,2.0,-999.0,80,-99.99,,,0.09,weatherlink.com 1.10,2013-06-27 01:58:00,
2013-06-26 22:13:00,72.4,66.0,29.98,WSW,242,0.0,-999.0,80,-99.99,,,0.09,weatherlink.com 1.10,2013-06-27 02:13:00,
2013-06-26 22:28:00,71.9,66.0,29.97,NNE,32,0.0,-999.0,81,-99.99,,,0.09,weatherlink.com 1.10,2013-06-27 02:28:00,
2013-06-26 22:43:00,71.7,66.0,29.98,ESE,110,0.0,-999.0,83,-99.99,,,0.09,weatherlink.com 1.10,2013-06-27 02:43:00,
2013-06-26 22:58:00,71.3,66.0,29.98,SSE,164,0.0,-999.0,84,-99.99,,,0.09,weatherlink.com 1.10,2013-06-27 02:58:00,
2013-06-26 23:13:00,71.7,66.0,29.98,SW,226,1.0,-999.0,83,-99.99,,,0.09,weatherlink.com 1.10,2013-06-27 03:13:00,
2013-06-26 23:28:00,71.8,67.0,29.98,SSE,168,1.0,-999.0,84,-99.99,,,0.09,weatherlink.com 1.10,2013-06-27 03:28:00,
2013-06-26 23:43:00,71.7,67.0,29.99,East,92,0.0,-999.0,84,-99.99,,,0.09,weatherlink.com 1.10,2013-06-27 03:43:00,
2013-06-26 23:58:00,71.4,67.0,29.99,SW,229,0.0,-999.0,85,-99.99,,,0.09,weatherlink.com 1.10,2013-06-27 03:58:00,